Location: Recife
(8.0585°S, 34.8848°W)
Time: 21:30:27
(UTC-03:00)

S-56A Canister/Altair - Pass Details

Date: 18 April 2026
Orbit: 633 x 2484 km, 38.9° (Epoch: 16 May)

Event Time Altitude Azimuth Distance (km) Brightness Sun altitude
Rises 00:39:13 0° 247° (WSW) 3,254 - -70.0°
Reaches altitude 10° 00:41:31 10° 256° (WSW) 2,477 - -69.5°
Maximum altitude 00:46:54 38° 323° (NW) 1,575 - -68.1°
Drops below altitude 10° 00:54:36 10° 28° (NNE) 3,543 - -66.3°
Exits shadow 00:57:24 - 34° (NNE) 4,468 11.6 -65.6°
Sets 00:58:33 0° 35° (NE) 4,849 11.9 -65.3°
